Location: Arrabal Las Matas
(41.5097°N, 1.9031°E)
Time: 13:02:12
(UTC+00:00)

Daily predictions for brighter satellites

Satellite Brightness Start Highest point End
(mag) Time Altitude Azimuth Time Altitude Azimuth Time Altitude Azimuth
Meteor 1-21 Rocket 4.2 17:22:12 10° S 17:27:41 70° E 17:33:15 10° NNE
Lacrosse 5 3.5 17:23:26 10° WNW 17:28:08 40° SW 17:32:49 10° SSE
Cosmos 1939 Rocket 3.2 17:25:19 10° SE 17:29:11 43° ENE 17:33:02 10° N
Cosmos 44 4.0 17:27:12 10° SW 17:31:52 55° NW 17:36:54 10° NNE
Cosmos 1602 Rocket 3.8 17:27:50 10° SSE 17:31:58 47° E 17:36:12 10° NNE
H-2A R/B 2.2 17:28:23 10° NNE 17:32:46 82° WNW 17:37:01 10° SSW
Cosmos 2026 Rocket 4.4 17:27:32 10° SSE 17:33:11 40° E 17:38:56 10° NNE
USA 229 DEB 4.1 17:26:49 10° NNW 17:33:55 50° NE 17:41:20 10° ESE
USA 229 4.2 17:26:56 10° NNW 17:34:01 50° NE 17:41:26 10° ESE
CZ-3B R/B 3.0 17:32:24 10° NNW 17:34:57 29° NE 17:41:06 10° ESE
SJ 16-02 2.8 17:30:54 10° SW 17:35:01 38° WNW 17:39:08 10° N
SeaSat 1 4.3 17:32:14 10° N 17:36:19 27° NW 17:40:23 10° WSW
FengYun 1-2 T 4.3 17:31:41 10° SSE 17:37:16 88° ENE 17:42:56 10° NNW
CSL-04 DEB 4.5 17:33:22 10° NNE 17:37:24 56° ESE 17:41:19 10° S
Cosmos 990 Rocket 4.1 17:33:10 10° SSW 17:38:22 86° WNW 17:43:36 10° NNE
Cosmos 158 Rocket 4.5 17:33:18 10° NNW 17:38:40 71° WSW 17:44:01 10° S
YAOGAN 1 3.8 17:35:35 10° ESE 17:38:43 20° ENE 17:41:50 10° NNE
Cosmos 2112 Rocket 4.0 17:33:53 10° NNW 17:39:06 68° ENE 17:44:15 10° SSE
Cosmos 1844 Rocket 4.1 17:34:57 10° SW 17:40:12 38° WNW 17:45:28 10° N
H-2A R/B 3.5 17:36:31 10° S 17:40:32 52° W 17:44:44 10° NNW
Cosmos 1689 Rocket 3.9 17:41:38 10° ENE 17:43:10 14° E 17:44:42 10° SE
Aureole 3 Rocket 3.5 17:41:14 10° NNE 17:44:17 30° E 17:48:02 10° SE
COSMOS 2406 3.6 17:40:08 10° NNW 17:45:37 42° ENE 17:51:03 10° SE
Cosmos 2082 Rocket 3.4 17:41:22 10° N 17:45:45 22° NE 17:50:04 10° ESE
Cosmos 1703 3.2 17:42:08 10° S 17:45:59 82° E 17:49:53 10° N
Cosmos 1825 Rocket 4.5 17:43:26 10° SSE 17:47:07 27° E 17:50:50 10° NNE
IRS-1C Rocket 4.4 17:43:10 10° SE 17:48:04 42° ENE 17:53:01 10° N
X-37B 1.0 17:45:51 10° WNW 17:48:58 48° N 17:51:36 13° E
NOSS 3-1 (A) 4.2 17:42:15 10° NNW 17:49:40 55° NE 17:58:11 10° SE
ISS -1.5 17:49:28 10° NW 17:51:30 15° N 17:53:33 10° NNE
Cosmos 1812 Rocket 3.5 17:49:14 10° N 17:53:35 61° E 17:57:52 10° SSE
Okean O Rocket 2.4 17:49:32 10° S 17:53:54 57° W 17:58:15 10° NNW
CZ-4 R/B 2.0 17:54:35 10° SE 17:58:13 33° ENE 18:01:49 10° N
Iridium 4 Rocket 3.5 17:56:48 10° N 18:02:00 53° E 18:06:43 10° SSE
ERS-2 2.5 18:00:08 10° NNE 18:03:37 42° E 18:07:03 10° S
SKYMED 2 3.5 17:59:18 10° NNE 18:03:41 85° ESE 18:08:00 10° SSW
Okean-O 3.1 18:01:37 10° SE 18:05:42 38° ENE 18:09:49 10° N
Cosmos 1428 Rocket 4.5 18:02:26 10° S 18:08:42 76° E 18:15:02 10° N
Cosmos 1340 3.2 18:05:52 10° SSW 18:09:32 60° W 18:13:16 10° N
Cosmos 1346 Rocket 3.0 18:06:17 10° S 18:10:03 47° E 18:13:51 10° NNE
Cosmos 2278 Rocket 2.2 18:04:37 10° SSW 18:10:15 72° ESE 18:15:56 10° NNE
Cosmos 1953 Rocket 4.1 18:09:39 10° SSE 18:13:33 33° E 18:17:27 10° NNE
CZ-2C R/B 3.2 18:08:39 10° SSE 18:14:05 83° ENE 18:19:51 10° N
Cosmos 2292 Rocket 4.3 18:13:45 10° SSE 18:18:18 33° E 18:20:40 18° NE
Cosmos 1892 4.3 18:15:47 10° SE 18:17:22 18° ESE 18:17:22 18° ESE
Cosmos 44 Rocket 3.7 18:15:55 10° S 18:20:29 42° ESE 18:23:19 22° ENE
SAR-Lupe-4 3.6 18:18:01 10° NNE 18:21:34 57° ESE 18:25:04 10° S
Cosmos 405 3.1 18:20:13 10° NNW 18:23:44 77° W 18:27:14 10° S
ARGOS 3.4 18:22:40 10° SE 18:27:44 45° ENE 18:32:51 10° N
Meteor 2-19 Rocket 4.4 18:23:25 10° S 18:29:35 86° E 18:35:46 10° N
Cosmos 372 Rocket 4.0 18:28:44 10° SSW 18:33:56 87° WNW 18:39:13 10° NNE
PSLV R/B 3.9 18:30:43 10° NNE 18:34:57 88° W 18:39:09 10° SSW
SAR-Lupe-1 4.0 18:34:04 10° NNE 18:37:38 86° WNW 18:41:12 10° SSW
CZ-4B R/B 3.6 18:35:41 10° NNW 18:38:24 24° WNW 18:41:02 10° SW
CZ-2C R/B 3.0 18:34:48 10° NNE 18:40:07 43° E 18:45:26 10° S
Cosmos 2150 Rocket 4.0 18:38:10 10° S 18:43:11 56° ESE 18:45:58 26° NE
MOS 1 Rocket 4.4 18:42:21 10° N 18:46:22 40° WNW 18:50:27 10° SW
Cosmos 1048 Rocket 4.1 18:43:08 10° N 18:48:07 48° ENE 18:49:37 37° ESE
Cosmos-2242 3.5 18:44:12 10° NNW 18:48:27 62° W 18:52:43 10° S
Cosmos 2297 4.1 18:45:43 10° S 18:50:56 39° ESE 18:51:23 38° E
USA 290 3.7 18:53:47 10° NW 18:56:45 36° WSW 18:59:41 10° S
SL-08 RB Rocket 3.6 18:59:18 60° E 18:59:26 60° ENE 19:03:52 10° N
USA 276 3.7 18:57:03 10° SW 18:58:53 28° SSW 18:58:53 28° SSW
CSL-04 Debris 4.0 18:56:09 10° SSE 19:01:32 87° ENE 19:06:57 10° NNW
Helios 1A Rocket 3.3 19:00:23 10° S 19:04:29 65° WSW 19:08:37 10° NNW
H-2A R/B 2.6 19:01:15 10° S 19:06:11 57° W 19:11:18 10° NNW
Cosmos 1125 Rocket 3.3 19:02:40 10° S 19:07:50 69° ESE 19:08:41 58° NE
Cosmos 1809 Rocket 4.3 19:02:09 10° S 19:08:15 79° E 19:14:26 10° N
Cosmos 1833 Rocket 3.6 19:04:49 10° NW 19:10:11 47° WSW 19:15:32 10° S
Cosmos 2298 Rocket 4.1 19:05:11 10° SSW 19:10:29 77° WNW 19:13:35 26° NNE
Cosmos 2266 Rocket 3.8 19:06:12 10° S 19:12:26 76° E 19:18:34 10° N
YAOGAN 1 4.0 19:10:31 10° SSW 19:14:32 38° W 19:18:34 10° NNW
USA 267 4.3 19:19:53 27° SSE 19:19:53 27° SSE 19:23:50 10° S
In-Cosmos 22 Rocket 4.4 19:16:25 10° SSW 19:22:12 74° W 19:27:54 10° N
X-37B 3.1 19:22:31 10° WNW 19:23:55 23° W 19:23:55 23° W
Cosmos 1943 Rocket 3.5 19:21:00 10° S 19:23:18 24° S 19:23:18 24° S
ISS -0.7 19:26:39 10° NW 19:26:49 11° NNW 19:26:49 11° NNW
Cosmos 2082 Rocket 2.6 19:24:38 10° NNW 19:30:16 62° WSW 19:33:42 24° S
CZ-4 R/B 4.2 19:30:29 10° SW 19:33:18 18° W 19:36:07 10° NW
Cosmos 2315 Rocket 4.2 19:41:38 10° N 19:46:33 58° N 19:46:33 58° N
USA 234 4.5 19:53:13 28° N 19:53:13 28° N 19:57:53 10° NW
ATLAS 5 CENTAUR R/B 4.2 20:17:15 10° SW 20:39:15 72° SW 20:39:15 72° SW
